[Iaude] MPEC T65: 2016 TZ10 [a=1.40,e=0.21,i=21.0,H=23.8]

mpec at si.edu mpec at si.edu
Fri Oct 7 12:27:38 EDT 2016


M.P.E.C. 2016-T65                                Issued 2016 Oct. 7, 16:23 UT
 
     The Minor Planet Electronic Circulars contain information on unusual
         minor planets and routine data on comets.  They are published
    on behalf of Division F of the International Astronomical Union by the
          Minor Planet Center, Smithsonian Astrophysical Observatory,
                          Cambridge, MA 02138, U.S.A.

             Prepared using the Tamkin Foundation Computer Network

                              MPC at CFA.HARVARD.EDU
            URL http://www.minorplanetcenter.net/    ISSN 1523-6714


                                   2016 TZ10
 
Observations:
     K16T10Z* C2016 10 05.29252 23 19 52.09 +36 01 42.6          20.8 VqET065G96
     K16T10Z  C2016 10 05.30115 23 19 53.99 +36 00 42.9          20.9 VqET065G96
     K16T10Z  C2016 10 05.30543 23 19 54.88 +36 00 12.9                qET065G96
     K16T10Z  C2016 10 05.33115 23 20 00.68 +35 57 12.0          20.8 VqET065G96
     K16T10Z  C2016 10 05.33611 23 20 01.80 +35 56 37.1          20.7 VqET065G96
     K16T10Z  C2016 10 05.34117 23 20 02.90 +35 56 01.6          20.8 VqET065G96
     K16T10Z  C2016 10 05.34616 23 20 04.02 +35 55 26.1          21.0 VqET065G96
     K16T10Z HC2016 10 06.13906 23 23 25.99 +34 21 13.5                qET065H21
     K16T10Z HC2016 10 06.14591 23 23 27.49 +34 20 23.4          21   VqET065H21
     K16T10Z  C2016 10 06.27958 23 23 59.38 +34 04 09.0          20.5 RoET065926
     K16T10Z  C2016 10 06.28298 23 24 00.14 +34 03 44.0          20.4 RoET065926
     K16T10Z  C2016 10 06.28641 23 24 00.92 +34 03 18.4          20.3 RoET065926
     K16T10Z  C2016 10 06.34929 23 24 15.34 +33 55 26.6          21.4 RoET065291
     K16T10Z  C2016 10 06.35029 23 24 15.57 +33 55 19.3          20.4 RoET065291
     K16T10Z  C2016 10 06.35130 23 24 15.82 +33 55 11.3          21.1 RoET065291
     K16T10Z  C2016 10 07.21932 23 28 00.88 +32 04 53.9          20.6 VqET065G96
     K16T10Z  C2016 10 07.22028 23 28 01.05 +32 04 45.7          21.0 VqET065G96
     K16T10Z  C2016 10 07.22133 23 28 01.29 +32 04 38.1          21.2 VqET065G96
     K16T10Z  C2016 10 07.22235 23 28 01.55 +32 04 29.5          21.1 VqET065G96
     K16T10Z  C2016 10 07.23667 23 28 04.98 +32 02 36.9          22.0 VqET065I52
     K16T10Z  C2016 10 07.23865 23 28 05.31 +32 02 22.3                qET065I52
     K16T10Z  C2016 10 07.23978 23 28 05.59 +32 02 13.1          21.8 VqET065I52
 
Observer details:
291 LPL/Spacewatch II.  Observer J. V. Scotti.  1.8-m f/2.7 reflector + CCD.
926 Tenagra II Observatory.  Observers M. Schwartz, P. R. Holvorcem.  Measurer
    M. Schwartz.  0.81-m f/7 Ritchey-Chretien + CCD.
G96 Mt. Lemmon Survey.  Observers R. G. Matheny, G. J. Leonard.  Measurers
    E. J. Christensen, D. C. Fuls, A. R. Gibbs, A. D. Grauer, J. A. Johnson,
    R. A. Kowalski, S. M. Larson, G. J. Leonard, R. G. Matheny, R. L. Seaman,
    F. C. Shelly.  1.5-m reflector + 10K CCD.
H21 Astronomical Research Observatory, Westfield.  Observer R. Holmes.
    Measurers L. Buzzi, T. Linder, S. Foglia, T. Vorobjov.  0.61-m f/4.0
    astrograph + CCD.
I52 Steward Observatory, Mt. Lemmon Station.  Observer J. A. Johnson.
    Measurers E. J. Christensen, D. C. Fuls, A. R. Gibbs, A. D. Grauer,
    J. A. Johnson, R. A. Kowalski, S. M. Larson, G. J. Leonard, R. G. Matheny,
    R. L. Seaman, F. C. Shelly.  1.0-m reflector + CCD.
 
Orbital elements:
2016 TZ10                                                Earth MOID = 0.1069 AU
Epoch 2016 July 31.0 TT = JDT 2457600.5                 MPC
M 308.12415              (2000.0)            P               Q
n   0.59682845     Peri.  187.25759     +0.86769501     -0.47712909
a   1.3971286      Node   202.92447     +0.47217881     +0.87881179
e   0.2105099      Incl.   20.98176     +0.15541089     -0.00613713
P   1.65           H   23.8           G   0.15           U   8
Residuals in seconds of arc
161005 G96  0.4+  0.2-    161006 H21  0.4-  0.1+    161007 G96  0.3-  0.3-
161005 G96  0.2+  0.3+    161006 926  0.2-  0.1-    161007 G96  0.4-  0.3+
161005 G96  0.5-  0.3+    161006 926  0.3-  0.2+    161007 G96  0.0   0.3-
161005 G96  0.2+  0.1-    161006 926  0.2-  0.1+    161007 I52 (1.8+  0.7-)
161005 G96  0.3+  0.1-    161006 291  0.0   0.2-    161007 I52  0.2+  0.2+
161005 G96  0.2-  0.1+    161006 291  0.0   0.1+    161007 I52  0.5+  0.1-
161005 G96  0.2-  0.2-    161006 291  0.2+  0.3-
161006 H21  0.3+  0.3+    161007 G96  0.3+  0.4+

Ephemeris:
2016 TZ10                a,e,i = 1.40, 0.21, 21                  q = 1.1030
Date    TT    R. A. (2000) Decl.     Delta      r     Elong.  Phase     V
2016 09 07    22 07 07.6 +57 19 51   0.2860  1.1602   115.6    51.6    23.3
...
2016 09 22    22 34 37.6 +52 04 25   0.2024  1.1315   124.8    46.7    22.4
...
2016 09 30    22 59 27.5 +44 27 50   0.1613  1.1199   134.2    39.9    21.7
...
2016 10 06    23 22 49.8 +34 38 18   0.1357  1.1131   144.6    31.4    21.0
2016 10 07    23 27 03.7 +32 33 28   0.1321  1.1121   146.6    29.7    20.9
2016 10 08    23 31 22.4 +30 20 31   0.1288  1.1112   148.6    27.9    20.8
...
2016 10 14    23 58 29.2 +14 27 08   0.1157  1.1066   159.7    18.2    20.3
...
2016 10 22    00 35 25.7 -09 09 03   0.1199  1.1034   153.1    24.1    20.5
...
2016 11 06    01 35 43.5 -35 40 15   0.1799  1.1061   125.8    46.6    22.1

A. U. Tomatic                (C) Copyright 2016 MPC           M.P.E.C. 2016-T65




More information about the Iaude mailing list